INNOSAT 3 (RS92S0) (64894 NORAD) Tracking and Keplerian Element Data

This shows tracking and keplerian element data for the satellite.

Feedback or suggestion? Click here.




ElementValue
Catalog64894
NameINNOSAT 3 (RS92S0)
Epoch Orbit5346
Epoch Day354.18579055
Epoch Year2025
RAAN318.38
Inclination97.4328
Eccentricity0.0009068
Argument of Perigee97.5498
Mean Anonmoly262.6773
Mean Motion15.30665768
Decay Rate0.00019602
L11 64894U 25155U 25354.18579055 .00019602 00000+0 66211-3 0 9994
L22 64894 97.4328 318.3800 0009068 97.5498 262.6773 15.30665768 53462



Live tracking and technical data element details for INNOSAT 3 (RS92S0) (NORAD 64894). INNOSAT 3 (RS92S0) can be tracked NOW for your location showing map with azimuth and elevation plus other details from your city location.







IsCatalogInMostPopularTable: catalog: 64894, numindb: 25
Update: records affected: 1



GetName: 64894 INNOSAT 3 (RS92S0)

Hit Count: updated at: Tue, 21 Apr 2026 20:14:26 GMT